Apalachicola, FL

5:09 AM EDT on August 23, 2017 (GMT -0400)
Apalachicola Municipal

Weather History for KAAF - November, 2013

Change the Weather History Date:

Saturday, November 23, 2013

  Actual Average Record
Temperature  
Mean Temperature 71 °F 60 °F  
Max Temperature 81 °F 71 °F 81 °F (2013)
Min Temperature 61 °F 49 °F 33 °F (1976)
Degree Days  
Heating Degree Days 0    
Month to date heating degree days 44  
Since 1 July heating degree days 58  
Cooling Degree Days 6    
Month to date cooling degree days 60  
Year to date cooling degree days 2720  
Growing Degree Days 20 (Base 50)    
Moisture  
Dew Point 62 °F    
Average Humidity 78    
Maximum Humidity 93    
Minimum Humidity 62    
Precipitation  
Precipitation 0.00 in 0.12 in 1.26 in (2001)
Month to date precipitation 1.48 2.67  
Year to date precipitation 53.62 53.54  
Sea Level Pressure  
Sea Level Pressure 30.13 in    
Wind  
Wind Speed 6 mph (North)    
Max Wind Speed 22 mph    
Max Gust Speed 29 mph    
Visibility 6 miles    
Events Fog    
T = Trace of Precipitation, MM = Missing Value Source: NWS Daily Summary

Daily Weather History Graph

Daily Weather History Graph

Search for Another Location

Airport or City:

Trip Planner

Search our weather history database for the weather conditions in past years. The results will help you decide how hot, cold, wet, or windy it might be!

Date:

Astronomy

Nov. 23, 2013 Rise Set
Actual Time 7:11 AM EST 5:41 PM EST
Civil Twilight 6:45 AM EST 6:07 PM EST
Nautical Twilight 6:16 AM EST 6:36 PM EST
Astronomical Twilight 5:48 AM EST 7:04 PM EST
Moon 10:59 PM EST 11:36 AM EST
Length of Visible Light 11h 21m
Length of Day
10h 30m
Waning Gibbous, 70% of the Moon is Illuminated
Nov 23
Waning Gibbous
Nov 25
Last Quarter
Dec 2
New
Dec 9
First Quarter
Dec 17
Full

Hourly Weather History & Observations

Time (EST) Temp. Dew Point Humidity Pressure Visibility Wind Dir Wind Speed Gust Speed Precip Events Conditions
12:16 AM 62.6 °F 60.8 °F 94% 30.15 in 8.0 mi Calm Calm - N/A   Mostly Cloudy
12:53 AM 64.9 °F 62.1 °F 90% 30.15 in 8.0 mi NE 3.5 mph - N/A   Mostly Cloudy
1:53 AM 66.0 °F 64.0 °F 93% 30.14 in 8.0 mi Calm Calm - N/A   Partly Cloudy
2:53 AM 64.0 °F 62.1 °F 93% 30.14 in 10.0 mi North 3.5 mph - N/A   Clear
2:59 AM 62.6 °F 60.8 °F 94% 30.13 in 1.8 mi North 4.6 mph - N/A   Partly Cloudy
3:15 AM 62.6 °F 60.8 °F 94% 30.13 in 2.0 mi Calm Calm - N/A   Scattered Clouds
3:20 AM 64.4 °F 60.8 °F 88% 30.13 in 1.0 mi Calm Calm - N/A   Mist
3:28 AM 62.6 °F 60.8 °F 94% 30.13 in 0.5 mi NW 3.5 mph - N/A Fog Fog
3:33 AM 62.6 °F 60.8 °F 94% 30.13 in 0.2 mi Calm Calm - N/A Fog Fog
3:37 AM 62.6 °F 60.8 °F 94% 30.13 in 0.5 mi Calm Calm - N/A Fog Fog
3:48 AM 62.6 °F 60.8 °F 94% 30.13 in 2.0 mi Calm Calm - N/A   Mostly Cloudy
3:49 AM 63.0 °F 61.0 °F 93% 30.13 in 2.0 mi Calm Calm - N/A   Mostly Cloudy
3:55 AM 62.6 °F 60.8 °F 94% 30.13 in 0.8 mi Calm Calm - N/A   Overcast
4:10 AM 62.6 °F 60.8 °F 94% 30.13 in 1.0 mi Calm Calm - N/A   Mostly Cloudy
4:16 AM 62.6 °F 60.8 °F 94% 30.13 in 2.0 mi Calm Calm - N/A   Mostly Cloudy
4:21 AM 62.6 °F 60.8 °F 94% 30.13 in 4.0 mi Calm Calm - N/A   Scattered Clouds
4:45 AM 62.6 °F 60.8 °F 94% 30.12 in 1.8 mi Calm Calm - N/A   Partly Cloudy
4:53 AM 62.1 °F 60.1 °F 93% 30.12 in 1.8 mi NNW 5.8 mph - N/A   Partly Cloudy
5:02 AM 62.6 °F 60.8 °F 94% 30.12 in 3.0 mi North 4.6 mph - N/A   Partly Cloudy
5:28 AM 64.4 °F 62.6 °F 94% 30.12 in 7.0 mi North 3.5 mph - N/A   Mostly Cloudy
5:53 AM 64.0 °F 62.1 °F 93% 30.13 in 7.0 mi Calm Calm - N/A   Mostly Cloudy
6:02 AM 64.4 °F 62.6 °F 94% 30.12 in 7.0 mi Calm Calm - N/A   Partly Cloudy
6:53 AM 63.0 °F 61.0 °F 93% 30.13 in 1.5 mi Calm Calm - N/A   Clear
6:58 AM 62.6 °F 60.8 °F 94% 30.13 in 0.8 mi NNW 3.5 mph - N/A   Mist
7:13 AM 62.6 °F 59.0 °F 88% 30.14 in 1.2 mi North 4.6 mph - N/A   Partly Cloudy
7:19 AM 62.6 °F 60.8 °F 94% 30.14 in 3.0 mi North 3.5 mph - N/A   Partly Cloudy
7:49 AM 64.4 °F 62.6 °F 94% 30.14 in 5.0 mi Calm Calm - N/A   Mostly Cloudy
7:53 AM 64.9 °F 63.0 °F 93% 30.15 in 5.0 mi Calm Calm - N/A   Mostly Cloudy
8:31 AM 66.2 °F 64.4 °F 94% 30.15 in 7.0 mi NNE 4.6 mph - N/A   Mostly Cloudy
8:53 AM 70.0 °F 66.0 °F 87% 30.15 in 9.0 mi North 5.8 mph - N/A   Mostly Cloudy
9:53 AM 72.0 °F 66.0 °F 81% 30.15 in 10.0 mi North 6.9 mph - N/A   Overcast
10:53 AM 75.9 °F 66.0 °F 71% 30.14 in 10.0 mi NNE 5.8 mph - N/A   Clear
11:53 AM 78.1 °F 66.0 °F 66% 30.13 in 10.0 mi Calm Calm - N/A   Partly Cloudy
12:15 PM 77.0 °F 66.2 °F 69% 30.12 in 10.0 mi NNW 6.9 mph - N/A   Mostly Cloudy
12:48 PM 77.0 °F 66.2 °F 69% 30.10 in 10.0 mi NW 5.8 mph - N/A   Mostly Cloudy
12:53 PM 77.0 °F 66.0 °F 69% 30.10 in 10.0 mi NNW 6.9 mph - N/A   Mostly Cloudy
1:53 PM 79.0 °F 66.0 °F 64% 30.08 in 10.0 mi WNW 5.8 mph - N/A   Mostly Cloudy
2:53 PM 78.1 °F 64.9 °F 64% 30.07 in 10.0 mi North 8.1 mph - N/A   Scattered Clouds
3:53 PM 75.9 °F 64.9 °F 69% 30.07 in 10.0 mi North 10.4 mph - N/A   Mostly Cloudy
4:53 PM 75.0 °F 64.9 °F 71% 30.08 in 10.0 mi North 5.8 mph - N/A   Mostly Cloudy
5:53 PM 73.0 °F 64.9 °F 76% 30.08 in 10.0 mi North 6.9 mph - N/A   Mostly Cloudy
6:53 PM 70.0 °F 63.0 °F 78% 30.10 in 10.0 mi North 10.4 mph - N/A   Clear
7:53 PM 68.0 °F 62.1 °F 81% 30.11 in 10.0 mi North 12.7 mph - N/A   Clear
8:53 PM 68.0 °F 61.0 °F 78% 30.12 in 10.0 mi North 13.8 mph - N/A   Overcast
9:53 PM 66.9 °F 60.1 °F 79% 30.13 in 10.0 mi North 8.1 mph - N/A   Overcast
10:15 PM 66.2 °F 60.8 °F 83% 30.13 in 10.0 mi North 13.8 mph - N/A   Overcast
10:53 PM 66.0 °F 57.9 °F 75% 30.15 in 10.0 mi NNE 12.7 mph - N/A   Overcast
11:07 PM 64.4 °F 57.2 °F 77% 30.14 in 10.0 mi North 13.8 mph - N/A   Overcast
11:39 PM 64.4 °F 55.4 °F 73% 30.14 in 10.0 mi NNE 15.0 mph - N/A   Overcast
11:53 PM 64.0 °F 52.0 °F 65% 30.14 in 10.0 mi North 18.4 mph 28.8 mph N/A   Overcast